Temperature
11 12 12 12 13 13 13 13 13 13 13 14 14 14 14 14 14 14 14 14 15 15 15 15 15 15 15 15 15 15 15 15 15 15 15 15 15 15 15 15 15 15 15
11 11 12 12 12 12 13 13 13 13 13 13 14 14 14 14 14 14 14 14 14 14 14 14 15 15 15 15 15 15 15 15 15 15 15 15 15 15 15 15 15 15 15
11 11 12 12 12 12 12 13 13 13 13 13 13 13 14 14 14 14 14 14 14 14 14 14 14 14 15 15 14 15 15 15 15 15 15 14 14 15 15 15 15 15 15
11 11 11 12 12 12 12 12 12 13 13 13 13 13 13 13 13 13 14 14 14 14 14 14 14 14 14 14 14 14 14 14 15 14 14 14 14 14 14 15 15 15 15
10 10 11 11 11 11 12 12 12 12 12 12 13 13 13 13 13 13 13 13 13 13 14 14 14 14 14 14 14 14 14 14 14 14 14 14 14 14 14 14 14 14 14
10 10 10 11 11 11 11 12 12 12 12 12 12 13 13 13 13 13 13 13 13 13 13 13 13 13 14 14 14 14 14 14 14 14 14 14 14 14 14 14 14 14 14
10 10 10 10 11 11 11 11 11 12 12 12 12 12 12 12 12 12 12 13 13 13 13 13 13 13 13 13 13 13 14 14 13 13 13 13 13 14 14 14 14 14 14
9 10 10 10 10 11 11 11 11 11 11 11 12 12 12 12 12 12 12 12 12 12 12 12 13 13 13 13 13 13 13 13 13 13 13 13 13 13 13 13 13 14 14
9 9 9 10 10 10 10 10 11 11 11 11 11 11 11 11 12 12 12 12 12 12 12 12 12 12 12 12 13 13 13 13 13 12 12 13 13 13 13 13 13 13 13
9 9 9 9 9 10 10 10 10 10 10 10 10 11 11 11 11 11 11 11 11 11 11 12 12 12 12 12 12 12 12 12 12 12 12 12 13 13 13 13 13 13 13
8 9 9 9 9 9 9 9 9 10 10 10 10 10 10 10 10 11 11 11 11 11 11 11 11 11 12 12 12 12 12 12 12 12 12 12 12 12 12 13 13 13 13
8 8 8 8 8 8 9 9 9 9 9 9 9 9 10 10 10 10 10 10 10 10 10 11 11 11 11 11 11 11 11 11 11 11 11 12 12 12 12 12 12 12 12
7 7 7 8 8 8 8 8 8 8 8 8 9 9 9 9 9 9 10 10 10 10 10 10 10 10 10 11 11 11 11 11 11 11 11 12 12 12 12 12 12 12 12
7 7 7 7 7 7 7 7 8 8 8 8 8 8 8 8 9 9 9 9 9 9 9 9 10 10 10 10 10 10 10 10 10 10 11 11 11 11 11 11 12 12 12
6 6 6 6 7 7 7 7 7 7 7 7 7 7 7 8 8 8 8 8 9 9 9 9 9 9 9 9 9 9 10 10 10 10 10 10 11 11 11 11 11 11 11
5 6 6 6 6 6 6 6 6 6 6 7 7 7 7 7 7 7 7 7 8 8 8 8 8 8 8 9 9 9 9 9 9 9 9 10 10 10 10 11 11 11 11
5 5 5 5 5 6 6 6 6 6 6 6 6 6 6 6 6 6 6 7 7 7 7 7 7 7 7 8 8 8 8 8 9 9 9 9 9 9 10 10 10 10 10
4 4 5 5 5 5 5 5 5 5 5 5 5 5 5 5 5 6 6 6 6 6 6 6 6 7 7 7 7 7 7 8 8 8 8 8 9 9 9 9 10 10 10
4 4 4 4 4 4 4 4 4 4 4 4 4 4 5 5 5 5 5 5 5 5 6 6 6 6 6 6 6 6 7 7 7 8 8 8 8 8 8 9 9 9 9
3 3 3 3 4 4 4 4 4 4 4 4 4 4 4 4 4 4 4 4 4 4 5 5 5 5 5 5 5 6 6 6 7 7 7 7 8 8 8 8 8 8 9
3 3 3 3 3 3 3 3 3 3 3 3 3 3 3 3 3 3 3 3 3 3 3 4 4 4 4 4 5 5 5 5 6 6 6 6 7 7 7 7 7 8 8
2 2 2 2 2 2 2 2 2 2 2 2 2 2 2 2 2 2 2 2 2 3 3 3 3 3 3 3 3 3 4 5 5 5 5 6 6 6 6 6 7 7 7
1 1 1 1 1 2 2 1 2 2 2 2 2 2 2 1 1 1 1 2 2 2 2 2 2 2 2 2 2 2 3 4 4 4 4 5 5 5 5 6 6 6 6
1 1 1 1 1 1 1 1 1 1 1 1 1 1 1 1 1 1 1 1 1 1 1 1 1 1 1 1 2 2 2 2 2 3 3 4 4 4 5 5 5 5 6
0 0 0 0 0 0 0 0 -0 -0 -0 -0 -0 -0 0 0 0 0 0 0 0 0 0 0 0 0 0 0 1 1 1 2 2 2 2 3 3 4 4 4 4 5 5
-0 -0 -0 -0 -0 -0 -1 -1 -1 -1 -1 -1 -1 -1 -1 -1 -1 -1 -1 -1 -1 -1 -1 -0 -0 -0 -0 -0 -0 0 0 1 1 1 2 2 2 3 3 3 3 4 4
Wind_Speed
4 9 9 9 9 9 10 11 11 12 11 11 11 10 11 11 11 11 10 10 10 10 10 10 11 11 12 12 12 12 12 12 12 12 12 12 12 12 11 10 10 12 14
6 7 7 8 8 9 10 11 11 12 12 11 11 10 11 11 11 11 11 11 11 11 10 10 11 11 12 12 12 11 11 11 11 10 9 10 11 11 10 10 9 11 13
6 6 6 8 8 9 10 11 11 12 12 12 12 11 11 11 11 12 11 11 11 11 10 10 11 11 11 11 11 11 11 10 9 7 5 7 10 10 10 10 10 11 11
6 6 7 9 10 10 11 11 11 12 13 13 13 12 12 12 12 12 12 11 10 10 10 10 10 10 10 10 10 10 10 9 8 4 5 6 7 9 9 9 9 9 10
7 7 9 10 10 11 11 12 11 12 13 13 13 13 13 12 12 12 12 11 10 10 10 10 10 9 9 10 10 9 9 8 6 4 6 6 6 8 8 8 8 8 9
7 8 9 11 11 12 12 12 12 13 13 13 13 13 13 13 13 13 12 12 11 10 9 9 9 9 10 9 9 9 8 6 3 5 5 5 6 7 6 7 7 7 7
7 8 9 11 11 12 12 12 12 13 13 13 13 13 13 13 14 13 13 12 11 10 10 8 8 9 9 9 9 8 8 6 3 4 4 4 6 6 5 5 6 6 6
7 8 9 11 12 13 13 13 13 13 13 13 13 12 12 13 13 13 12 12 12 11 10 8 8 8 9 9 8 8 7 5 3 3 3 3 6 5 4 4 4 5 6
8 8 9 9 9 11 12 13 13 13 13 13 13 12 12 12 12 12 12 11 11 11 10 8 7 7 7 7 7 7 6 4 2 2 2 3 5 3 3 3 3 4 5
8 9 9 9 9 8 9 11 12 12 13 13 13 13 11 10 10 10 11 11 10 10 9 8 7 6 5 6 6 6 4 2 2 2 2 3 4 3 2 2 2 3 3
8 9 9 9 8 8 8 9 10 10 11 11 11 11 10 8 8 8 10 10 10 9 8 7 6 5 3 4 5 4 2 2 2 2 2 4 4 3 2 2 1 2 3
7 8 8 9 8 7 7 7 7 8 8 9 9 9 8 7 7 7 8 9 8 8 6 6 6 4 2 2 2 2 2 2 2 1 2 4 3 3 2 2 0 1 3
5 6 7 8 8 7 6 7 7 7 7 8 9 10 9 7 7 7 6 7 7 7 6 5 4 4 3 3 2 2 3 3 2 2 2 4 3 3 2 2 0 1 2
5 6 7 8 8 8 6 6 6 6 6 7 8 9 8 7 6 6 6 6 6 5 6 5 4 5 4 3 2 2 2 2 2 2 2 3 3 3 2 2 2 0 1
4 5 6 7 7 7 6 5 5 5 6 6 7 8 8 7 6 6 6 6 6 6 5 5 5 4 4 4 3 3 3 2 3 3 2 2 3 3 3 3 2 2 1
4 4 5 6 7 7 6 5 5 5 5 5 6 7 7 6 6 6 6 5 5 6 6 5 5 4 4 4 4 4 3 3 3 3 3 2 2 3 3 3 3 3 3
2 3 4 5 7 7 7 6 5 5 5 5 6 6 7 6 6 5 5 5 5 6 6 5 5 5 4 4 4 4 4 4 3 3 4 3 3 2 3 3 3 3 3
2 3 4 5 6 7 7 6 5 5 5 6 6 7 7 7 7 5 5 5 6 5 4 4 4 4 4 4 4 4 4 4 4 4 4 4 3 3 3 3 3 4 4
2 2 3 5 5 6 6 5 5 5 6 6 7 7 8 8 8 6 5 5 6 5 4 4 3 3 4 4 4 4 4 4 4 4 4 4 4 4 4 3 3 4 4
2 2 3 4 5 5 5 4 4 5 6 6 7 8 9 8 9 7 5 5 5 4 4 4 4 4 4 4 4 4 4 4 4 4 4 4 3 4 4 4 4 3 4
1 2 3 4 4 5 4 4 3 4 4 5 6 8 8 9 9 8 6 5 5 4 5 5 4 4 4 3 3 4 4 5 4 4 4 3 3 3 4 4 4 4 4
1 1 2 3 3 4 4 4 3 3 3 4 5 6 8 8 8 7 7 5 5 4 5 5 4 3 3 3 3 3 3 4 3 4 4 4 4 3 4 4 5 5 5
1 0 1 2 3 4 4 4 4 3 3 3 5 5 8 8 8 8 8 7 6 5 4 5 5 5 4 4 3 3 3 3 3 4 5 4 4 4 4 5 6 6 6
1 1 0 1 2 3 4 4 4 4 4 5 5 5 7 7 8 8 8 7 6 5 5 5 5 5 5 4 3 4 5 4 4 3 4 4 5 5 5 5 6 7 7
2 1 0 0 2 3 3 3 4 4 4 4 5 5 6 6 7 8 8 8 6 5 6 6 6 5 5 6 5 4 5 5 6 6 6 6 5 5 5 6 6 6 7
1 1 0 0 1 2 3 3 4 5 5 5 6 6 6 5 6 8 8 8 7 6 6 6 6 6 6 6 6 5 5 5 5 6 7 7 7 6 6 6 6 6 6
Wind_Direction
351 348 351 357 16 30 35 36 40 41 40 43 47 49 49 50 49 48 52 53 55 57 63 69 69 71 72 72 72 74 73 71 71 71 73 76 80 85 87 87 94 96 95
339 345 359 7 27 33 37 40 43 44 43 43 45 48 49 50 49 48 49 53 54 55 60 69 70 69 70 71 71 71 70 71 70 69 76 85 83 83 85 81 76 93 97
351 358 13 24 37 38 41 41 44 45 44 44 46 48 48 48 48 48 50 51 52 54 58 67 70 70 69 69 70 70 69 69 68 69 87 91 91 85 87 88 90 97 102
0 11 23 35 42 42 42 42 45 45 44 43 43 44 46 47 47 47 49 49 49 53 59 63 68 69 69 69 70 70 66 66 64 68 87 85 91 89 89 92 96 101 106
13 21 29 36 42 43 43 43 45 45 44 42 42 43 43 43 45 45 46 46 46 50 61 64 63 65 68 67 68 69 65 64 66 75 77 82 88 89 91 93 97 103 109
21 24 35 37 42 46 48 47 44 43 43 43 42 42 41 41 44 44 44 44 46 48 57 66 67 64 65 65 65 64 59 51 72 77 71 75 84 86 89 95 97 106 112
28 28 37 40 42 46 48 48 46 43 42 41 42 41 41 41 41 40 41 42 43 45 49 60 67 66 62 61 60 57 51 37 56 71 66 69 72 74 85 97 98 110 119
33 32 37 39 38 41 43 44 45 44 42 40 39 40 40 39 39 38 37 38 39 39 42 48 59 62 57 54 54 52 45 30 51 64 64 69 67 66 76 91 102 112 121
36 36 33 33 36 38 41 42 43 44 42 39 36 37 38 38 38 36 34 34 33 34 35 36 45 60 59 52 48 44 38 16 30 51 50 58 54 56 69 81 94 112 122
37 34 29 29 29 32 37 39 40 41 40 39 36 32 33 37 37 36 31 28 26 28 29 30 33 48 58 56 47 38 22 352 27 39 38 47 41 39 66 69 89 105 128
34 28 23 24 25 26 32 35 35 35 35 35 32 27 26 27 29 30 28 26 22 21 22 25 25 32 50 66 49 24 352 355 360 13 22 38 24 23 34 35 72 111 128
25 22 21 20 19 24 28 29 27 28 28 27 23 19 17 17 20 17 21 20 19 16 17 18 13 12 15 34 38 11 349 335 336 358 33 40 14 9 9 358 102 138 143
26 22 19 19 17 21 26 25 24 24 25 23 21 16 15 15 14 14 12 12 6 5 6 1 356 358 356 359 353 347 341 333 334 339 20 35 3 358 0 3 305 176 160
30 22 17 17 18 18 21 27 26 24 25 22 17 16 16 13 8 6 6 0 358 354 352 349 343 342 335 334 331 333 331 332 325 326 5 21 348 338 338 345 349 192 173
35 23 18 17 18 17 18 22 25 25 24 21 15 15 14 10 3 357 356 354 351 349 348 344 336 333 327 321 312 310 314 316 313 308 326 15 338 327 310 300 300 266 228
32 24 20 22 19 18 18 19 19 22 19 17 16 12 11 7 359 353 349 347 347 344 340 334 336 326 317 312 303 297 293 293 289 291 292 311 325 312 306 296 289 287 253
35 26 24 24 20 20 15 14 16 20 14 13 9 4 3 1 350 345 341 341 341 337 336 335 332 329 314 304 297 293 289 281 272 276 279 282 286 291 295 291 287 285 281
45 36 25 21 20 20 15 10 15 20 20 15 10 3 1 357 348 342 338 340 336 333 332 332 330 325 312 300 296 291 286 280 270 269 271 274 277 280 292 299 289 282 278
44 39 29 21 18 16 12 10 19 26 25 17 13 6 359 355 350 340 336 337 336 329 328 326 320 315 307 299 290 291 285 273 267 265 262 270 272 274 280 289 281 276 272
46 37 27 23 18 15 13 10 16 26 22 20 18 10 4 359 353 347 335 336 336 330 326 321 313 314 301 300 292 287 280 271 265 259 259 263 267 273 278 280 275 263 258
61 37 24 19 16 14 10 360 357 2 1 10 13 9 4 1 356 352 345 336 334 327 321 318 313 311 313 314 300 291 277 260 257 255 258 258 260 268 279 284 281 278 265
153 40 19 12 8 11 7 357 345 341 348 356 1 3 3 358 354 349 346 338 331 324 318 319 312 305 306 312 297 287 275 260 244 253 259 258 261 274 284 287 283 279 274
184 236 358 2 0 5 5 5 0 351 344 346 351 354 356 353 351 348 342 336 331 326 313 315 308 303 294 292 280 278 269 258 286 249 250 251 259 269 277 280 279 279 272
201 204 227 2 3 8 9 5 360 347 340 334 334 336 340 345 348 345 340 335 327 323 316 311 307 298 289 281 283 274 279 285 267 257 246 254 267 270 272 278 279 274 269
199 196 201 15 360 6 8 360 344 334 329 328 330 330 336 341 344 343 338 332 327 322 317 312 303 299 290 281 278 280 278 277 269 259 263 264 268 268 272 272 272 268 265
185 186 253 297 339 351 351 344 339 332 326 326 330 330 331 332 334 337 334 330 323 318 314 308 302 295 288 283 279 269 268 267 267 268 268 269 272 275 273 268 265 266 267
Height
1551 1551 1550 1550 1550 1550 1549 1548 1548 1547 1547 1546 1545 1545 1544 1543 1543 1542 1541 1541 1540 1540 1540 1539 1539 1538 1538 1537 1537 1537 1537 1537 1536 1536 1536 1536 1536 1536 1536 1536 1536 1537 1536
1552 1551 1551 1550 1550 1550 1549 1548 1548 1547 1547 1546 1546 1545 1544 1544 1543 1542 1542 1541 1541 1541 1540 1540 1539 1539 1539 1538 1538 1538 1538 1538 1538 1538 1538 1538 1538 1537 1538 1538 1538 1538 1538
1551 1551 1551 1550 1550 1550 1549 1549 1548 1548 1547 1547 1546 1545 1545 1544 1543 1543 1542 1542 1541 1541 1541 1540 1540 1539 1539 1539 1539 1538 1538 1538 1538 1539 1539 1539 1539 1539 1539 1539 1539 1539 1539
1551 1551 1551 1550 1550 1550 1549 1549 1548 1548 1547 1547 1546 1546 1545 1544 1544 1543 1543 1542 1542 1541 1541 1540 1540 1540 1540 1539 1539 1539 1539 1539 1539 1540 1540 1540 1540 1540 1540 1540 1540 1541 1541
1551 1551 1550 1550 1550 1549 1549 1549 1548 1548 1547 1547 1546 1545 1545 1544 1544 1543 1543 1542 1542 1542 1541 1541 1540 1540 1540 1540 1540 1539 1539 1539 1540 1540 1541 1541 1541 1541 1541 1541 1541 1542 1542
1551 1551 1550 1550 1549 1549 1549 1548 1548 1547 1547 1546 1546 1545 1545 1544 1544 1543 1542 1542 1542 1542 1541 1541 1540 1540 1540 1540 1540 1540 1540 1540 1540 1541 1541 1541 1541 1541 1541 1541 1542 1542 1542
1551 1550 1550 1549 1549 1549 1548 1548 1547 1547 1546 1546 1545 1545 1544 1544 1543 1543 1542 1542 1542 1541 1541 1541 1540 1540 1540 1540 1540 1540 1540 1540 1540 1541 1541 1541 1541 1541 1541 1541 1542 1542 1542
1550 1550 1549 1549 1549 1548 1548 1547 1547 1546 1546 1545 1545 1544 1544 1543 1543 1542 1542 1541 1541 1541 1541 1540 1540 1540 1539 1540 1540 1539 1539 1540 1540 1540 1540 1540 1540 1540 1541 1541 1541 1542 1542
1550 1550 1549 1549 1548 1548 1547 1547 1546 1546 1545 1545 1544 1544 1543 1543 1542 1542 1541 1541 1540 1540 1540 1540 1539 1539 1539 1539 1539 1539 1539 1539 1540 1540 1540 1540 1540 1540 1540 1541 1541 1541 1542
1550 1549 1549 1548 1548 1547 1547 1546 1546 1545 1545 1544 1544 1543 1543 1542 1541 1541 1540 1540 1540 1539 1539 1539 1538 1538 1538 1538 1538 1538 1538 1539 1539 1539 1539 1539 1539 1539 1539 1540 1540 1541 1541
1549 1549 1548 1548 1547 1546 1546 1545 1545 1544 1544 1543 1543 1542 1542 1541 1541 1540 1539 1539 1538 1538 1538 1538 1537 1537 1537 1537 1537 1537 1537 1538 1538 1538 1538 1538 1538 1538 1538 1539 1539 1540 1540
1548 1548 1547 1547 1546 1546 1545 1544 1544 1543 1543 1542 1542 1541 1540 1540 1539 1538 1538 1537 1537 1537 1536 1536 1536 1536 1536 1536 1536 1536 1536 1537 1537 1537 1537 1536 1536 1537 1537 1537 1538 1538 1539
1547 1547 1546 1546 1545 1545 1544 1544 1543 1542 1542 1541 1540 1539 1539 1538 1538 1537 1536 1536 1536 1535 1535 1534 1534 1534 1534 1534 1534 1534 1535 1535 1535 1535 1535 1535 1535 1535 1535 1536 1536 1537 1537
1546 1546 1545 1545 1544 1544 1543 1543 1542 1541 1540 1539 1538 1538 1537 1536 1536 1535 1534 1534 1534 1533 1532 1532 1532 1532 1532 1532 1532 1532 1532 1532 1532 1533 1533 1533 1533 1533 1533 1534 1534 1535 1535
1545 1545 1544 1544 1543 1543 1543 1542 1541 1540 1539 1538 1537 1536 1535 1534 1534 1533 1533 1532 1532 1531 1530 1530 1530 1529 1529 1530 1529 1529 1530 1530 1530 1530 1530 1530 1531 1531 1531 1532 1532 1532 1533
1544 1544 1543 1543 1542 1542 1541 1541 1540 1538 1537 1537 1536 1535 1534 1532 1532 1531 1531 1530 1529 1529 1528 1528 1527 1527 1526 1527 1527 1527 1527 1527 1527 1527 1527 1528 1528 1528 1529 1529 1529 1530 1531
1543 1543 1542 1542 1541 1541 1540 1539 1538 1537 1536 1535 1534 1533 1532 1531 1530 1529 1529 1528 1527 1526 1526 1525 1525 1524 1524 1524 1524 1524 1524 1524 1524 1524 1525 1525 1525 1525 1526 1526 1526 1527 1528
1542 1542 1541 1541 1540 1540 1539 1538 1537 1536 1535 1534 1532 1531 1530 1529 1528 1527 1526 1525 1524 1524 1523 1522 1522 1521 1521 1520 1520 1520 1520 1520 1520 1521 1521 1522 1522 1522 1522 1523 1523 1524 1525
1540 1540 1540 1539 1539 1538 1537 1536 1536 1534 1533 1532 1530 1529 1528 1527 1526 1525 1523 1522 1521 1521 1520 1519 1519 1518 1517 1517 1517 1516 1516 1516 1517 1517 1518 1518 1518 1519 1519 1519 1520 1520 1521
1539 1539 1539 1538 1537 1536 1536 1535 1534 1532 1531 1530 1528 1527 1526 1525 1523 1522 1521 1520 1519 1518 1517 1516 1516 1515 1514 1513 1513 1513 1513 1513 1513 1513 1514 1514 1514 1515 1515 1515 1516 1516 1517
1538 1537 1537 1536 1535 1535 1533 1532 1531 1530 1529 1528 1526 1525 1523 1522 1521 1520 1518 1517 1516 1515 1514 1513 1512 1511 1511 1510 1510 1509 1509 1509 1509 1509 1510 1510 1511 1511 1511 1511 1512 1512 1513
1536 1536 1535 1534 1534 1533 1532 1530 1529 1528 1527 1525 1524 1523 1521 1520 1518 1517 1516 1514 1513 1512 1511 1510 1509 1508 1507 1507 1507 1507 1506 1507 1505 1505 1506 1506 1507 1507 1507 1508 1508 1508 1508
1533 1533 1533 1533 1532 1531 1530 1529 1527 1526 1524 1523 1522 1520 1519 1517 1515 1514 1513 1511 1510 1508 1508 1507 1506 1505 1504 1504 1505 1506 1505 1503 1502 1501 1502 1502 1503 1503 1503 1504 1504 1504 1504
1531 1531 1531 1531 1530 1529 1528 1526 1525 1523 1522 1520 1519 1517 1516 1514 1512 1511 1510 1508 1507 1505 1504 1504 1503 1502 1501 1501 1501 1502 1502 1501 1500 1497 1498 1498 1498 1499 1499 1499 1499 1500 1500
1530 1529 1529 1529 1528 1527 1526 1524 1523 1521 1520 1518 1516 1515 1513 1511 1510 1508 1507 1505 1504 1502 1501 1500 1499 1499 1498 1497 1497 1497 1497 1496 1496 1495 1493 1494 1494 1494 1494 1494 1495 1495 1495
1528 1528 1527 1527 1526 1525 1523 1522 1520 1519 1517 1515 1513 1511 1510 1508 1507 1505 1504 1502 1500 1499 1497 1496 1495 1494 1494 1493 1492 1492 1492 1492 1492 1492 1490 1489 1489 1489 1489 1490 1490 1490 1490